Content
SEND FEEDBACK

Daily
Averages
Monthly
Summary
United States of America

GREENSBURG, INDIANA


Home > North America > United States > Indiana
Elevation: 949 feet     Latitude: 39 20N     Longitude: 085 28W

WEATHER
 
SELECT A DAY
Number of Records: 172,848;   Date Range: 10/15/98 - 7/29/14
 
SHARE

PRINT THIS DATA

[ ← Previous Day ]
WEATHER ALMANAC - JULY 2, 2014
[ Next Day → ]
[ °C ]   °F
Weather ElementAverageHighLow
Temperature73.4 °F82 °F (1:53 pm)66.9 °F (5:53 am)
Dewpoint64.2 °F68 °F (9:53 am)57 °F (11:53 pm)
Humidity74 %90 % (7:21 am)50 % (5:53 pm)
Barometer29.92 in30.00 in (11:53 pm)29.87 in (1:53 am)
Wind Speed8.4 mph13.8 mph (1:53 pm)
Wind Gust20.7 mph (2:53 pm)
Weather ElementAverage
Visibility9.8 mi
Wind DirectionWSW (235.3 °)

Weather ElementTotal
Precipitation---
Cooling Degree Days9.5 (Base 65)
Growing Degree Days24.5 (Base 50)
Averaged from 32 records on July 2, 2014
WEATHER CONDITIONS BREAKOUT
WIND DIRECTION BREAKOUT
WEATHER BY HOUR - JULY 2, 2014
[ °C ]   °F
Local TimeTemperatureDewpointHumidityBarometerVisibilityWind DirectionWind SpeedGust SpeedPrecipitationEventsConditions
1:53 AM68.0 °F64.0 °F87 %29.87 in10.0 miSW (220°)4.6 mphClear
2:53 AM68.0 °F64.0 °F87 %29.87 in10.0 miSW (220°)5.8 mphPartly Cloudy
3:53 AM68.0 °F63.0 °F84 %29.87 in10.0 miWSW (240°)6.9 mphClear
4:53 AM68.0 °F63.0 °F84 %29.87 in10.0 miWSW (240°)10.4 mphScattered Clouds
5:53 AM66.9 °F63.0 °F87 %29.87 in10.0 miSSW (200°)6.9 mphClear
6:53 AM66.9 °F63.0 °F87 %29.88 in10.0 miSSW (200°)5.8 mphClear
7:21 AM66.9 °F64.0 °F90 %29.91 in10.0 miSSW (200°)5.8 mphScattered Clouds
7:30 AM68.0 °F64.0 °F87 %29.92 in10.0 miSSW (200°)5.8 mphMostly Cloudy
7:53 AM68.0 °F64.9 °F90 %29.90 in9.0 miSW (220°)6.9 mphOvercast
8:19 AM69.1 °F66.0 °F90 %29.92 in8.0 miSouth (190°)6.9 mphScattered Clouds
8:42 AM71.1 °F66.9 °F87 %29.93 in9.0 miSSW (210°)6.9 mphMostly Cloudy
8:53 AM71.1 °F66.9 °F87 %29.91 in9.0 miSW (220°)8.1 mphMostly Cloudy
9:25 AM73.0 °F66.9 °F81 %29.93 in10.0 miWSW (240°)4.6 mphOvercast
9:53 AM75.0 °F68.0 °F79 %29.91 in10.0 miSSW (210°)9.2 mphMostly Cloudy
10:06 AM75.0 °F66.9 °F76 %29.93 in10.0 miSW (230°)8.1 mphMostly Cloudy
10:17 AM75.0 °F66.9 °F76 %29.93 in10.0 miSW (230°)6.9 mphMostly Cloudy
10:40 AM75.9 °F68.0 °F76 %29.93 in10.0 miSSW (210°)8.1 mphScattered Clouds
10:53 AM77.0 °F68.0 °F74 %29.91 in10.0 miWSW (240°)9.2 mphPartly Cloudy
11:53 AM78.1 °F66.9 °F68 %29.92 in10.0 miVariable6.9 mphScattered Clouds
12:06 PM78.1 °F66.9 °F68 %29.93 in10.0 miWSW (250°)9.2 mphMostly Cloudy
12:29 PM79.0 °F66.0 °F64 %29.94 in10.0 miWSW (240°)6.9 mphScattered Clouds
12:53 PM80.1 °F66.0 °F62 %29.92 in10.0 miWSW (240°)11.5 mph17.3 mphMostly Cloudy
1:53 PM82.0 °F64.9 °F56 %29.92 in10.0 miWSW (240°)13.8 mphScattered Clouds
2:53 PM82.0 °F64.9 °F56 %29.91 in10.0 miWSW (250°)12.7 mph20.7 mphClear
3:53 PM82.0 °F64.0 °F54 %29.92 in10.0 miWNW (290°)13.8 mphPartly Cloudy
5:53 PM81.0 °F61.0 °F50 %29.92 in10.0 miWNW (290°)12.7 mphScattered Clouds
6:53 PM80.1 °F61.0 °F52 %29.93 in10.0 miWNW (300°)12.7 mphMostly Cloudy
7:53 PM77.0 °F60.1 °F56 %29.94 in10.0 miWNW (300°)8.1 mphPartly Cloudy
8:53 PM73.0 °F61.0 °F66 %29.95 in10.0 miNW (320°)10.4 mphMostly Cloudy
9:53 PM69.1 °F59.0 °F70 %29.96 in10.0 miNW (320°)8.1 mphClear
10:53 PM69.1 °F59.0 °F70 %29.99 in10.0 miNW (310°)8.1 mphMostly Cloudy
11:53 PM68.0 °F57.0 °F68 %30.00 in10.0 miWest (260°)6.9 mphOvercast
Hourly data recorded from KGEZ, located miles away from Greensburg, Indiana







STORIES FROM OUR PARTNERS